Hailey, ID

2:28 PM MST on November 23, 2017 (GMT -0700)
Friedman Memorial

Weather History for KSUN - January, 2013

Change the Weather History Date:

Tuesday, January 22, 2013

  Actual Average Record
Temperature  
Mean Temperature 20 °F -  
Max Temperature 33 °F 34 °F 44 °F (1998)
Min Temperature 6 °F 14 °F -2 °F (2008)
Degree Days  
Heating Degree Days 46    
Moisture  
Dew Point 9 °F    
Average Humidity 75    
Maximum Humidity 92    
Minimum Humidity 38    
Precipitation  
Precipitation 0.00 in - - ()
Sea Level Pressure  
Sea Level Pressure 30.28 in    
Wind  
Wind Speed 7 mph (NNW)    
Max Wind Speed 12 mph    
Max Gust Speed -    
Visibility 10 miles    
Events      
Averages and records for this station are not official NWS values.
T = Trace of Precipitation, MM = Missing Value Source: NWS Daily Summary

Daily Weather History Graph

Daily Weather History Graph

Search for Another Location

Airport or City:

Trip Planner

Search our weather history database for the weather conditions in past years. The results will help you decide how hot, cold, wet, or windy it might be!

Date:

Astronomy

Jan. 22, 2013 Rise Set
Actual Time 8:02 AM MST 5:35 PM MST
Civil Twilight 7:31 AM MST 6:07 PM MST
Nautical Twilight 6:56 AM MST 6:41 PM MST
Astronomical Twilight 6:22 AM MST 7:15 PM MST
Moon 2:00 PM MST (1/22) 4:28 AM MST (1/22)
Length of Visible Light 10h 35m
Length of Day
9h 33m
Waxing Gibbous, 83% of the Moon is Illuminated
Jan 22
Waxing Gibbous
Jan 26
Full
Feb 3
Last Quarter
Feb 10
New
Feb 17
First Quarter

Hourly Weather History & Observations

Time (MST) Temp. Windchill Dew Point Humidity Pressure Visibility Wind Dir Wind Speed Gust Speed Precip Events Conditions
12:15 AM 8.6 °F -3.7 °F 6.8 °F 92% 30.32 in 10.0 mi NNW 8.1 mph - N/A   Clear
12:55 AM 10.4 °F -1.5 °F 6.8 °F 85% 30.32 in 10.0 mi NNW 8.1 mph - N/A   Clear
1:15 AM 10.4 °F 2.2 °F 5.0 °F 79% 30.32 in 10.0 mi North 4.6 mph - N/A   Clear
1:35 AM 8.6 °F -4.7 °F 5.0 °F 85% 30.32 in 10.0 mi NNW 9.2 mph - N/A   Clear
1:55 AM 6.8 °F -7.8 °F 5.0 °F 92% 30.31 in 10.0 mi NNW 10.4 mph - N/A   Clear
2:15 AM 10.4 °F -2.4 °F 8.6 °F 92% 30.31 in 10.0 mi NNW 9.2 mph - N/A   Clear
2:35 AM 10.4 °F -2.4 °F 6.8 °F 85% 30.31 in 10.0 mi NNW 9.2 mph - N/A   Clear
2:55 AM 10.4 °F -2.4 °F 6.8 °F 85% 30.31 in 10.0 mi NNW 9.2 mph - N/A   Clear
3:15 AM 8.6 °F -4.7 °F 5.0 °F 85% 30.30 in 10.0 mi NNW 9.2 mph - N/A   Clear
3:35 AM 8.6 °F -2.6 °F 5.0 °F 85% 30.30 in 10.0 mi NNW 6.9 mph - N/A   Clear
3:55 AM 8.6 °F -3.7 °F 5.0 °F 85% 30.30 in 10.0 mi NNW 8.1 mph - N/A   Clear
4:15 AM 10.4 °F 2.2 °F 5.0 °F 79% 30.30 in 10.0 mi North 4.6 mph - N/A   Clear
4:35 AM 10.4 °F 0.8 °F 5.0 °F 79% 30.30 in 10.0 mi NNW 5.8 mph - N/A   Clear
4:55 AM 8.6 °F -3.7 °F 3.2 °F 79% 30.29 in 10.0 mi North 8.1 mph - N/A   Clear
5:15 AM 8.6 °F -4.7 °F 3.2 °F 79% 30.29 in 10.0 mi NNW 9.2 mph - N/A   Clear
5:35 AM 8.6 °F -3.7 °F 3.2 °F 79% 30.29 in 10.0 mi NNW 8.1 mph - N/A   Clear
5:55 AM 8.6 °F -2.6 °F 3.2 °F 79% 30.29 in 10.0 mi NNW 6.9 mph - N/A   Clear
6:47 AM 8.6 °F -4.7 °F 3.2 °F 79% 30.27 in 10.0 mi WNW 9.2 mph - N/A   Clear
7:47 AM 6.8 °F -4.8 °F 1.4 °F 79% 30.28 in 10.0 mi NW 6.9 mph - N/A   Partly Cloudy
9:47 AM 15.8 °F 4.2 °F 6.8 °F 68% 30.30 in 10.0 mi WNW 9.2 mph - N/A   Partly Cloudy
10:47 AM 19.4 °F 10.4 °F 8.6 °F 63% 30.13 in 10.0 mi NNW 6.9 mph - N/A   Partly Cloudy
11:47 AM 24.8 °F - 10.4 °F 54% 30.32 in 10.0 mi Calm Calm - N/A   Partly Cloudy
12:47 PM 28.4 °F - 12.2 °F 51% 30.29 in 10.0 mi Calm Calm - N/A   Partly Cloudy
1:47 PM 33.8 °F - 10.4 °F 38% 30.27 in 10.0 mi Calm Calm - N/A   Partly Cloudy
2:57 PM 30.2 °F 22.6 °F 15.8 °F 55% 30.27 in 10.0 mi SE 8.1 mph - N/A   Partly Cloudy
3:47 PM 28.4 °F 20.4 °F 17.6 °F 64% 30.26 in 10.0 mi ESE 8.1 mph - N/A   Partly Cloudy
4:47 PM 24.8 °F 17.9 °F 15.8 °F 69% 30.27 in 10.0 mi SE 5.8 mph - N/A   Clear
5:47 PM 26.6 °F 22.6 °F 15.8 °F 64% 30.27 in 10.0 mi WNW 3.5 mph - N/A   Clear
6:47 PM 21.2 °F 12.6 °F 14.0 °F 74% 30.26 in 10.0 mi WNW 6.9 mph - N/A   Clear
7:47 PM 19.4 °F 11.5 °F 14.0 °F 80% 30.25 in 10.0 mi NW 5.8 mph - N/A   Clear
8:47 PM 19.4 °F 10.4 °F 12.2 °F 74% 30.25 in 10.0 mi NW 6.9 mph - N/A   Clear
9:47 PM 17.6 °F 7.3 °F 12.2 °F 79% 30.26 in 10.0 mi NW 8.1 mph - N/A   Clear
10:15 PM 19.4 °F 9.5 °F 12.2 °F 74% 30.26 in 10.0 mi NW 8.1 mph - N/A   Clear
10:35 PM 19.4 °F 8.6 °F 14.0 °F 80% 30.26 in 10.0 mi NW 9.2 mph - N/A   Clear
10:47 PM 19.4 °F 11.5 °F 12.2 °F 74% 30.26 in 10.0 mi NW 5.8 mph - N/A   Clear
10:55 PM 21.2 °F 11.7 °F 12.2 °F 68% 30.26 in 10.0 mi NW 8.1 mph - N/A   Clear
11:15 PM 19.4 °F 9.5 °F 12.2 °F 74% 30.26 in 10.0 mi NW 8.1 mph - N/A   Clear
11:35 PM 21.2 °F 10.9 °F 12.2 °F 68% 30.26 in 10.0 mi NW 9.2 mph - N/A   Clear
11:55 PM 21.2 °F 9.5 °F 12.2 °F 68% 30.25 in 10.0 mi NW 11.5 mph - N/A   Clear